This is the latest recevied weather packets stored in our database for station/object SV9TNF-2. If no packets are shown the sender has not sent any weather packets the latest 10 day(s).
| Time | Temp. | Humidity | Pressure | Rain* | Wind** | Luminosity | Snow |
|---|---|---|---|---|---|---|---|
| 1777665930 | 16.11° C | 74% | 1022.7 hPa | 0 mm | 6.71 m/s, 87° | - | - |
| 1777665630 | 16.11° C | 73% | 1022.7 hPa | 0 mm | 6.71 m/s, 110° | - | - |
| 1777665330 | 16.11° C | 74% | 1022.7 hPa | 0 mm | 8.05 m/s, 80° | - | - |
| 1777665030 | 16.11° C | 73% | 1022.7 hPa | 0 mm | 8.05 m/s, 84° | - | - |
| 1777664729 | 16.11° C | 73% | 1022.7 hPa | 0 mm | 6.26 m/s, 89° | - | - |
| 1777664430 | 16.11° C | 72% | 1022.7 hPa | 0 mm | 6.26 m/s, 77° | - | - |
| 1777664129 | 16.11° C | 73% | 1022.7 hPa | 0 mm | 5.81 m/s, 71° | - | - |
| 1777663830 | 16.11° C | 73% | 1022.7 hPa | 0 mm | 8.05 m/s, 93° | - | - |
| 1777663529 | 16.11° C | 74% | 1022.7 hPa | 0 mm | 7.15 m/s, 90° | - | - |
| 1777662929 | 16.11° C | 74% | 1022.7 hPa | 0 mm | 6.26 m/s, 72° | - | - |
| 1777662629 | 16.11° C | 75% | 1022.7 hPa | 0 mm | 7.6 m/s, 90° | - | - |
| 1777662329 | 16.11° C | 75% | 1022.7 hPa | 0 mm | 6.26 m/s, 82° | - | - |
| 1777662029 | 16.67° C | 74% | 1022.7 hPa | 0 mm | 6.71 m/s, 94° | - | - |
| 1777661729 | 16.11° C | 74% | 1022.7 hPa | 0 mm | 4.92 m/s, 136° | - | - |
| 1777661429 | 16.11° C | 73% | 1022.7 hPa | 0 mm | 6.26 m/s, 76° | - | - |
| 1777661128 | 16.11° C | 75% | 1022.7 hPa | 0 mm | 6.26 m/s, 102° | - | - |
| 1777660828 | 16.11° C | 76% | 1022.7 hPa | 0 mm | 6.26 m/s, 90° | - | - |
| 1777660528 | 16.11° C | 75% | 1022.7 hPa | 0 mm | 5.81 m/s, 76° | - | - |
| 1777660229 | 16.11° C | 75% | 1022.7 hPa | 0 mm | 4.92 m/s, 86° | - | - |
| 1777659928 | 16.11° C | 75% | 1022.7 hPa | 0 mm | 4.02 m/s, 95° | - | - |
| 1777659628 | 16.11° C | 76% | 1022.7 hPa | 0 mm | 4.92 m/s, 82° | - | - |
| 1777659328 | 16.11° C | 75% | 1022.7 hPa | 0 mm | 4.02 m/s, 93° | - | - |
| 1777659028 | 16.11° C | 76% | 1022.4 hPa | 0 mm | 5.81 m/s, 103° | - | - |
| 1777658728 | 16.11° C | 75% | 1022.4 hPa | 0 mm | 4.47 m/s, 89° | - | - |
| 1777658428 | 16.11° C | 74% | 1022.4 hPa | 0 mm | 5.81 m/s, 48° | - | - |
* Rain latest hour (hover to see other rain measurements)
** Current wind speed in m/s (hover to see current wind gust speed)